Satellite-Ground Cal/Val Site Overpasses Predictions

Prediction of Satellite NPP Overpassing Cal/Val Site: Antarctic Dome C

Ground Cal/Val Site Location: Latitude: -75.10, Longitude: 123.35; Satellite-Ground Site NADIR distance within 100 km.

Table of predicted overpasses for the next 14.0 days since TLE Epoch: 11/12/2022
Interval Starting Time Ending Time Minimum Distance Time Minimum Distance (km)
1 11/12/2022 14:37:03 11/12/2022 14:37:19 11/12/2022 14:37:11 83.76
2 11/13/2022 07:38:36 11/13/2022 07:39:03 11/13/2022 07:38:49 34.06
3 11/14/2022 07:19:50 11/14/2022 07:20:09 11/14/2022 07:19:59 76.18
4 11/16/2022 15:02:03 11/16/2022 15:02:26 11/16/2022 15:02:15 59.88
5 11/17/2022 14:43:11 11/17/2022 14:43:36 11/17/2022 14:43:24 49.41
6 11/18/2022 07:44:52 11/18/2022 07:45:13 11/18/2022 07:45:02 68.69
7 11/19/2022 07:25:58 11/19/2022 07:26:25 11/19/2022 07:26:12 39.42
8 11/21/2022 15:08:23 11/21/2022 15:08:30 11/21/2022 15:08:27 96.95
9 11/22/2022 14:49:22 11/22/2022 14:49:51 11/22/2022 14:49:36 14.50
